Location: *
(50.0228°S, 177.2688°W)
Time: 18:55:06
(UTC+00:00)

Envisat - Pass Details

Date: 07 April 2020
Orbit: 764 x 766 km, 98.1° (Epoch: 25 May)

Event Time Altitude Azimuth Distance (km) Brightness Sun altitude
Rises 06:48:17 0° 168° (SSE) 3,277 6.2 -14.5°
Reaches altitude 10° 06:50:37 10° 170° (S) 2,343 5.5 -14.9°
Maximum altitude 06:55:45 69° 251° (WSW) 834 3.4 -15.7°
Drops below altitude 10° 07:00:50 10° 334° (NNW) 2,316 5.7 -16.5°
Sets 07:03:08 0° 336° (NNW) 3,235 6.4 -16.9°
